Regional Weather Roundup
Issued by NWS

Home | Current Version | Previous Version | Text Only | Print | Product List | Glossary On
Versions: 1 2 3 4 5 6 7 8 9 10 11 12 13 14 15 16 17 18 19 20 21 22 23 24 25 26 27 28 29 30 31 32 33 34 35 36 37 38 39 40 41 42 43 44 45 46 47 48 49 50
000
ASUS46 KSEW 030210
RWRWA

WASHINGTON REGIONAL WEATHER ROUNDUP
NATIONAL WEATHER SERVICE SEATTLE WA
700 PM PDT MON MAY 02 2016

NOTE:"FAIR" INDICATES FEW OR NO CLOUDS BELOW 12,000 FEET WITH NO
SIGNIFICANT WEATHER AND/OR OBSTRUCTIONS TO VISIBILITY.

WAZ505-507>509-030300-
SEATTLE, TACOMA, EVERETT, AND VICINITY

CITY           SKY/WX    TMP DP  RH WIND       PRES   REMARKS
EVERETT        MOSUNNY   80  40  23 W5        29.89F
BOEING FIELD   MOSUNNY   85  46  25 W7        29.86S
RENTON         SUNNY     86  42  21 VRB3      29.85F
SEATAC AIRPORT MOSUNNY   82  44  26 SW12G21   29.89S
JBLM-MCCHORD   MOSUNNY   78  46  32 W14G20    29.90R
PUYALLUP       FAIR      77  48  36 VRB5G12   29.90R
BREMERTON      SUNNY     72  46  40 S14G20    29.93R
JBLM-FT LEWIS  MOSUNNY   77  46  33 SW16G23   29.89R
TACOMA NARROWS MOSUNNY   75  44  33 W9G18     29.89S
$$

WAZ001-503-506-510-514-515-030300-
NORTH INTERIOR

CITY           SKY/WX    TMP DP  RH WIND       PRES   REMARKS
BELLINGHAM     SUNNY     79  52  38 CALM      29.86F
FRIDAY HARBOR  SUNNY     70  48  45 CALM      29.88S
EASTSOUND      SUNNY     68  50  52 CALM      29.86S HAZE
PORT ANGELES   MOSUNNY   69  47  45 W10       29.92R
EDIZ HOOK      FAIR      65  46  50 W14       29.90S
PORT TOWNSEND  FAIR      75  48  38 W13G18    29.88S
NAS WHIDBEY    MOSUNNY   65  50  58 SW7       29.92S
ARLINGTON      SUNNY     82  43  24 SW7       29.87S
BURLINGTON     SUNNY     79  52  38 W7G16     29.87S
$$

WAZ020-022-039-040-504-511-512-030300-
SOUTHWEST INTERIOR

CITY           SKY/WX    TMP DP  RH WIND       PRES   REMARKS
SHELTON        MOSUNNY   73  42  32 W16       29.90S
OLYMPIA        MOSUNNY   74  39  28 W8        29.91R
CHEHALIS       FAIR      79  46  31 NW6       29.92R
KELSO          MOSUNNY   72  43  35 W9G18     29.95S
VANCOUVER      MOSUNNY   82  46  28 N10G20    29.87R
SCAPPOOSE, OR  MOSUNNY   78  42  27 NW8       29.87R
PORTLAND, OR   MOSUNNY   85  42  22 W7        29.87S
$$

WAZ021-516-517-030300-
WASHINGTON COAST

CITY           SKY/WX    TMP DP  RH WIND       PRES   REMARKS
FORKS          CLOUDY    63  52  67 S6        29.94F
HOQUIAM        PTSUNNY   59  56  89 SW9       29.96S FOG
ASTORIA, OR    PTSUNNY   58  54  86 SW9       29.97S FOG
$$

WAZ019-023-024-040-518-519-030300-
CASCADE MOUNTAINS AND COLUMBIA GORGE

CITY           SKY/WX    TMP DP  RH WIND       PRES   REMARKS
STAMPEDE PASS  MOSUNNY   63  25  23 CALM      30.06F
TROUTDALE, OR  MOSUNNY   83  45  26 CALM      29.86S
THE DALLES, OR SUNNY     85  35  16 E7        29.86F
$$

WAZ026-027-041>044-520-521-030300-
EAST SLOPES

CITY           SKY/WX    TMP DP  RH WIND       PRES   REMARKS
OMAK           SUNNY     79  38  22 SE7       29.98F
WENATCHEE      SUNNY     79  34  19 E6        29.96F
ELLENSBURG     SUNNY     79  41  25 E7        29.98S
YAKIMA         SUNNY     84  34  16 SE5       29.94F
$$

WAZ028-034-035-030300-
COLUMBIA BASIN

CITY           SKY/WX    TMP DP  RH WIND       PRES   REMARKS
EPHRATA        SUNNY     79  36  21 S7        29.97F
MOSES LAKE     SUNNY     82  38  20 E5        29.97F
PASCO          SUNNY     84  40  21 E10       29.92F
HERMISTON, OR  SUNNY     83  41  22 NE13      29.90F
$$

WAZ036>038-030300-
NORTHEAST WASHINGTON

CITY           SKY/WX    TMP DP  RH WIND       PRES   REMARKS
SPOKANE GEIGER PTCLDY    76  36  23 CALM      30.04S
SPOKANE FELTS  PTCLDY    75  45  34 N3        30.02F
FAIRCHILD AFB  NOT AVBL
COEURDALENE,ID FAIR      75  39  27 SW3       30.00F
DEER PARK      CLEAR     75  38  26 CALM      30.04F
$$

WAZ029>033-030300-
SOUTHEAST WASHINGTON

CITY           SKY/WX    TMP DP  RH WIND       PRES   REMARKS
PULLMAN        PTCLDY    73  47  39 NE7       30.05F
LEWISTON, ID   PTCLDY    79  37  22 E5        29.98S
WALLA WALLA    CLEAR     76  47  35 N10       29.94F
PENDLETON, OR  PTCLDY    76  45  33 NE14      29.93F
$$



USA.gov is the U.S. government's official web portal to all federal, state and local government web resources and services.